Location: Lafig�re
(44.4503°N, 4.0357°E)
Time: 22:10:28
(UTC+00:00)

Cosmos 1092 Rocket - Pass Details

Date: 02 February 2021
Orbit: 954 x 995 km, 83.0° (Epoch: 07 March)

Event Time Altitude Azimuth Distance (km) Brightness Sun altitude
Rises 18:48:46 0° 233° (SW) 3,634 7.9 -20.6°
Reaches altitude 10° 18:52:06 10° 251° (WSW) 2,688 7.4 -21.2°
Maximum altitude 18:56:16 19° 294° (WNW) 2,124 6.5 -21.9°
Drops below altitude 10° 19:00:28 10° 338° (NNW) 2,693 6.5 -22.6°
Sets 19:03:50 0° 356° (N) 3,644 7.0 -23.2°
